TimeEDT,TemperatureF,Dew PointF,Humidity,Sea Level PressureIn,VisibilityMPH,Wind Direction,Wind SpeedMPH,Gust SpeedMPH,PrecipitationIn,Events,Conditions,WindDirDegrees,DateUTC
12:52 AM,63.0,50.0,63,30.03,10.0,WSW,6.9,-,N/A,,Clear,240,2012-11-03 04:52:00
1:52 AM,64.0,53.1,67,30.03,10.0,WSW,6.9,-,N/A,,Clear,250,2012-11-03 05:52:00
2:52 AM,62.1,53.1,72,30.04,10.0,WSW,6.9,-,N/A,,Clear,240,2012-11-03 06:52:00
3:52 AM,61.0,53.1,75,30.03,10.0,WSW,5.8,-,N/A,,Clear,250,2012-11-03 07:52:00
4:52 AM,61.0,54.0,78,30.04,10.0,WSW,4.6,-,N/A,,Clear,250,2012-11-03 08:52:00
5:52 AM,61.0,55.0,81,30.05,9.0,WSW,4.6,-,N/A,,Clear,240,2012-11-03 09:52:00
6:52 AM,60.1,55.0,83,30.06,10.0,WSW,6.9,-,N/A,,Clear,250,2012-11-03 10:52:00
7:52 AM,60.1,55.0,83,30.09,6.0,WSW,6.9,-,N/A,,Haze,250,2012-11-03 11:52:00
8:52 AM,63.0,57.0,81,30.11,7.0,WSW,3.5,-,N/A,,Clear,250,2012-11-03 12:52:00
9:40 AM,64.4,57.2,77,30.11,6.0,West,4.6,-,N/A,,Haze,270,2012-11-03 13:40:00
9:52 AM,64.0,55.9,75,30.12,7.0,West,6.9,-,N/A,,Clear,270,2012-11-03 13:52:00
10:20 AM,64.4,55.4,73,30.12,7.0,Variable,4.6,-,N/A,,Partly Cloudy,0,2012-11-03 14:20:00
10:52 AM,66.0,55.9,70,30.12,9.0,West,5.8,-,N/A,,Clear,260,2012-11-03 14:52:00
11:06 AM,66.2,55.4,68,30.12,10.0,West,6.9,-,N/A,,Clear,280,2012-11-03 15:06:00
11:52 AM,71.1,55.0,57,30.12,10.0,West,5.8,-,N/A,,Clear,270,2012-11-03 15:52:00
12:52 PM,75.9,48.0,37,30.10,10.0,Variable,4.6,-,N/A,,Clear,0,2012-11-03 16:52:00
1:52 PM,78.1,48.9,36,30.08,10.0,Variable,3.5,-,N/A,,Clear,0,2012-11-03 17:52:00
2:52 PM,77.0,52.0,42,30.06,10.0,East,4.6,-,N/A,,Clear,80,2012-11-03 18:52:00
3:52 PM,75.0,50.0,41,30.05,10.0,East,6.9,-,N/A,,Clear,90,2012-11-03 19:52:00
4:52 PM,75.0,48.0,38,30.05,10.0,East,6.9,-,N/A,,Clear,100,2012-11-03 20:52:00
5:52 PM,73.0,48.9,42,30.05,10.0,SE,5.8,-,N/A,,Clear,140,2012-11-03 21:52:00
6:52 PM,68.0,52.0,56,30.06,10.0,SSE,4.6,-,N/A,,Clear,150,2012-11-03 22:52:00
7:52 PM,66.9,53.1,61,30.07,10.0,Calm,Calm,-,N/A,,Clear,0,2012-11-03 23:52:00
8:52 PM,64.9,54.0,68,30.07,10.0,South,3.5,-,N/A,,Clear,170,2012-11-04 00:52:00
9:52 PM,63.0,53.1,70,30.08,10.0,Calm,Calm,-,N/A,,Clear,0,2012-11-04 01:52:00
10:52 PM,63.0,54.0,72,30.08,10.0,SSW,4.6,-,N/A,,Clear,210,2012-11-04 02:52:00
11:52 PM,62.1,54.0,75,30.08,10.0,SSW,5.8,-,N/A,,Clear,210,2012-11-04 03:52:00